Location: Cointrin
(46.2167°N, 6.1167°E)
Time: 06:08:36
(UTC+00:00)

Cosmos 968 Rocket - Pass Details

Date: 08 February 2023
Orbit: 740 x 770 km, 74.0° (Epoch: 25 March)

Event Time Altitude Azimuth Distance (km) Brightness Sun altitude
Rises 19:08:20 0° 214° (SW) 3,204 7.1 -24.2°
Reaches altitude 10° 19:10:45 10° 220° (SW) 2,288 6.4 -24.6°
Maximum altitude 19:15:49 52° 296° (WNW) 947 4.2 -25.5°
Enters shadow 19:20:18 14° 11° (N) 2,078 5.7 -26.3°
